﻿測定場所 (Monitoring sites),日付 (Measurement date),時間 (Measurement time),線量率 最大値 (max) μGy/h,線量率 最小値 (min) μGy/h,線量率 平均値 (average) μGy/h,
八王子 (Hachioji),2012-04-15,23:01～24:00,0.0393,0.0350,0.0371,
八王子 (Hachioji),2012-04-15,22:01～23:00,0.0404,0.0353,0.0374,
八王子 (Hachioji),2012-04-15,21:01～22:00,0.0406,0.0357,0.0375,
八王子 (Hachioji),2012-04-15,20:01～21:00,0.0404,0.0346,0.0376,
八王子 (Hachioji),2012-04-15,19:01～20:00,0.0400,0.0357,0.0374,
八王子 (Hachioji),2012-04-15,18:01～19:00,0.0407,0.0355,0.0374,
八王子 (Hachioji),2012-04-15,17:01～18:00,0.0403,0.0352,0.0377,
八王子 (Hachioji),2012-04-15,16:01～17:00,0.0412,0.0350,0.0376,
八王子 (Hachioji),2012-04-15,15:01～16:00,0.0404,0.0353,0.0374,
八王子 (Hachioji),2012-04-15,14:01～15:00,0.0416,0.0347,0.0374,
八王子 (Hachioji),2012-04-15,13:01～14:00,0.0414,0.0352,0.0378,
八王子 (Hachioji),2012-04-15,12:01～13:00,0.0412,0.0355,0.0376,
八王子 (Hachioji),2012-04-15,11:01～12:00,0.0420,0.0356,0.0376,
八王子 (Hachioji),2012-04-15,10:01～11:00,0.0419,0.0360,0.0380,
八王子 (Hachioji),2012-04-15,09:01～10:00,0.0415,0.0359,0.0382,
八王子 (Hachioji),2012-04-15,08:01～09:00,0.0421,0.0356,0.0380,
八王子 (Hachioji),2012-04-15,07:01～08:00,0.0415,0.0361,0.0379,
八王子 (Hachioji),2012-04-15,06:01～07:00,0.0420,0.0351,0.0381,
八王子 (Hachioji),2012-04-15,05:01～06:00,0.0412,0.0360,0.0380,
八王子 (Hachioji),2012-04-15,04:01～05:00,0.0419,0.0354,0.0381,
八王子 (Hachioji),2012-04-15,03:01～04:00,0.0412,0.0351,0.0376,
八王子 (Hachioji),2012-04-15,02:01～03:00,0.0399,0.0354,0.0376,
八王子 (Hachioji),2012-04-15,01:01～02:00,0.0395,0.0349,0.0371,
八王子 (Hachioji),2012-04-15,00:01～01:00,0.0400,0.0351,0.0370,
八王子 (Hachioji),2012-04-14,23:01～24:00,0.0410,0.0352,0.0373,
八王子 (Hachioji),2012-04-14,22:01～23:00,0.0413,0.0353,0.0378,
八王子 (Hachioji),2012-04-14,21:01～22:00,0.0417,0.0362,0.0392,
八王子 (Hachioji),2012-04-14,20:01～21:00,0.0432,0.0374,0.0404,
八王子 (Hachioji),2012-04-14,19:01～20:00,0.0462,0.0396,0.0428,
八王子 (Hachioji),2012-04-14,18:01～19:00,0.0441,0.0380,0.0417,
八王子 (Hachioji),2012-04-14,17:01～18:00,0.0521,0.0403,0.0460,
八王子 (Hachioji),2012-04-14,16:01～17:00,0.0557,0.0463,0.0516,
八王子 (Hachioji),2012-04-14,15:01～16:00,0.0562,0.0489,0.0525,
八王子 (Hachioji),2012-04-14,14:01～15:00,0.0592,0.0522,0.0557,
八王子 (Hachioji),2012-04-14,13:01～14:00,0.0579,0.0488,0.0540,
八王子 (Hachioji),2012-04-14,12:01～13:00,0.0602,0.0526,0.0564,
八王子 (Hachioji),2012-04-14,11:01～12:00,0.0582,0.0460,0.0532,
八王子 (Hachioji),2012-04-14,10:01～11:00,0.0549,0.0472,0.0512,
八王子 (Hachioji),2012-04-14,09:01～10:00,0.0548,0.0489,0.0519,
八王子 (Hachioji),2012-04-14,08:01～09:00,0.0564,0.0494,0.0532,
八王子 (Hachioji),2012-04-14,07:01～08:00,0.0561,0.0464,0.0522,
八王子 (Hachioji),2012-04-14,06:01～07:00,0.0540,0.0473,0.0504,
八王子 (Hachioji),2012-04-14,05:01～06:00,0.0553,0.0467,0.0495,
八王子 (Hachioji),2012-04-14,04:01～05:00,0.0547,0.0447,0.0503,
八王子 (Hachioji),2012-04-14,03:01～04:00,0.0557,0.0462,0.0511,
八王子 (Hachioji),2012-04-14,02:01～03:00,0.0528,0.0447,0.0491,
八王子 (Hachioji),2012-04-14,01:01～02:00,0.0545,0.0470,0.0505,
八王子 (Hachioji),2012-04-14,00:01～01:00,0.0553,0.0467,0.0515,
八王子 (Hachioji),2012-04-13,23:01～24:00,0.0501,0.0416,0.0462,
八王子 (Hachioji),2012-04-13,22:01～23:00,0.0521,0.0427,0.0466,
八王子 (Hachioji),2012-04-13,21:01～22:00,0.0527,0.0451,0.0492,
八王子 (Hachioji),2012-04-13,20:01～21:00,0.0524,0.0417,0.0477,
八王子 (Hachioji),2012-04-13,19:01～20:00,0.0460,0.0365,0.0408,
八王子 (Hachioji),2012-04-13,18:01～19:00,0.0416,0.0360,0.0382,
八王子 (Hachioji),2012-04-13,17:01～18:00,0.0419,0.0358,0.0381,
八王子 (Hachioji),2012-04-13,16:01～17:00,0.0433,0.0357,0.0383,
八王子 (Hachioji),2012-04-13,15:01～16:00,0.0414,0.0355,0.0388,
八王子 (Hachioji),2012-04-13,14:01～15:00,0.0414,0.0362,0.0386,
八王子 (Hachioji),2012-04-13,13:01～14:00,0.0414,0.0360,0.0386,
八王子 (Hachioji),2012-04-13,12:01～13:00,0.0417,0.0353,0.0384,
八王子 (Hachioji),2012-04-13,11:01～12:00,0.0416,0.0356,0.0384,
八王子 (Hachioji),2012-04-13,10:01～11:00,0.0419,0.0362,0.0384,
八王子 (Hachioji),2012-04-13,09:01～10:00,0.0421,0.0360,0.0385,
八王子 (Hachioji),2012-04-13,08:01～09:00,0.0417,0.0362,0.0392,
八王子 (Hachioji),2012-04-13,07:01～08:00,0.0436,0.0363,0.0395,
八王子 (Hachioji),2012-04-13,06:01～07:00,0.0418,0.0364,0.0393,
八王子 (Hachioji),2012-04-13,05:01～06:00,0.0426,0.0365,0.0393,
八王子 (Hachioji),2012-04-13,04:01～05:00,0.0419,0.0363,0.0385,
八王子 (Hachioji),2012-04-13,03:01～04:00,0.0434,0.0356,0.0381,
八王子 (Hachioji),2012-04-13,02:01～03:00,0.0421,0.0352,0.0379,
八王子 (Hachioji),2012-04-13,01:01～02:00,0.0420,0.0357,0.0383,
八王子 (Hachioji),2012-04-13,00:01～01:00,0.0411,0.0359,0.0380,
八王子 (Hachioji),2012-04-12,23:01～24:00,0.0421,0.0357,0.0383,
八王子 (Hachioji),2012-04-12,22:01～23:00,0.0413,0.0361,0.0378,
八王子 (Hachioji),2012-04-12,21:01～22:00,0.0413,0.0358,0.0382,
八王子 (Hachioji),2012-04-12,20:01～21:00,0.0402,0.0361,0.0381,
八王子 (Hachioji),2012-04-12,19:01～20:00,0.0416,0.0353,0.0378,
八王子 (Hachioji),2012-04-12,18:01～19:00,0.0410,0.0357,0.0382,
八王子 (Hachioji),2012-04-12,17:01～18:00,0.0397,0.0356,0.0375,
八王子 (Hachioji),2012-04-12,16:01～17:00,0.0405,0.0356,0.0379,
八王子 (Hachioji),2012-04-12,15:01～16:00,0.0408,0.0359,0.0378,
八王子 (Hachioji),2012-04-12,14:01～15:00,0.0407,0.0357,0.0379,
八王子 (Hachioji),2012-04-12,13:01～14:00,0.0420,0.0362,0.0382,
八王子 (Hachioji),2012-04-12,12:01～13:00,0.0416,0.0360,0.0380,
八王子 (Hachioji),2012-04-12,11:01～12:00,0.0421,0.0350,0.0379,
八王子 (Hachioji),2012-04-12,10:01～11:00,0.0407,0.0362,0.0384,
八王子 (Hachioji),2012-04-12,09:01～10:00,0.0417,0.0359,0.0380,
八王子 (Hachioji),2012-04-12,08:01～09:00,0.0405,0.0359,0.0378,
八王子 (Hachioji),2012-04-12,07:01～08:00,0.0421,0.0356,0.0377,
八王子 (Hachioji),2012-04-12,06:01～07:00,0.0403,0.0355,0.0374,
八王子 (Hachioji),2012-04-12,05:01～06:00,0.0399,0.0348,0.0371,
八王子 (Hachioji),2012-04-12,04:01～05:00,0.0405,0.0353,0.0373,
八王子 (Hachioji),2012-04-12,03:01～04:00,0.0420,0.0354,0.0375,
八王子 (Hachioji),2012-04-12,02:01～03:00,0.0406,0.0339,0.0372,
八王子 (Hachioji),2012-04-12,01:01～02:00,0.0417,0.0352,0.0376,
八王子 (Hachioji),2012-04-12,00:01～01:00,0.0422,0.0358,0.0378,
八王子 (Hachioji),2012-04-11,23:01～24:00,0.0432,0.0354,0.0390,
八王子 (Hachioji),2012-04-11,22:01～23:00,0.0473,0.0377,0.0416,
八王子 (Hachioji),2012-04-11,21:01～22:00,0.0479,0.0399,0.0439,
八王子 (Hachioji),2012-04-11,20:01～21:00,0.0445,0.0394,0.0419,
八王子 (Hachioji),2012-04-11,19:01～20:00,0.0444,0.0368,0.0404,
八王子 (Hachioji),2012-04-11,18:01～19:00,0.0419,0.0363,0.0390,
八王子 (Hachioji),2012-04-11,17:01～18:00,0.0424,0.0365,0.0392,
八王子 (Hachioji),2012-04-11,16:01～17:00,0.0416,0.0361,0.0388,
八王子 (Hachioji),2012-04-11,15:01～16:00,0.0414,0.0354,0.0388,
八王子 (Hachioji),2012-04-11,14:01～15:00,0.0420,0.0360,0.0387,
八王子 (Hachioji),2012-04-11,13:01～14:00,0.0419,0.0358,0.0384,
八王子 (Hachioji),2012-04-11,12:01～13:00,0.0422,0.0364,0.0394,
八王子 (Hachioji),2012-04-11,11:01～12:00,0.0442,0.0380,0.0409,
